This demonstration page uses our WeatherBlox Daily Observations layout. Learn more.

Hourly Observations for June 23, 2017

Temp ( °F °C ) Dew Point ( °F °C ) Humidity (%) Winds ( mph kmh ) Pressure ( in mb ) Visibility ( mi km ) Precip ( " mm )
12:15 am 00:15 Clear 77 25 73 23 89 89 Calm 29.97 1015 10 16.09344 0 0
12:35 am 00:35 Clear 77 25 73 23 89 89 Calm 29.94 1014 10 16.09344 0 0
12:55 am 00:55 Clear 77 25 73 23 89 89 Calm 29.94 1014 10 16.09344 0 0
1:15 am 01:15 Clear 77 25 73 23 89 89 Calm 29.94 1014 10 16.09344 0 0
1:35 am 01:35 Clear 77 25 73 23 89 89 SSW 5 7 29.94 1014 10 16.09344 0 0
1:55 am 01:55 Clear 75 24 73 23 94 94 Calm 29.91 1013 10 16.09344 0 0
2:15 am 02:15 Clear 75 24 73 23 94 94 SSW 3 6 29.91 1013 10 16.09344 0 0
2:35 am 02:35 Clear 75 24 73 23 94 94 S 5 7 29.91 1013 10 16.09344 0 0
2:55 am 02:55 Clear 73 23 73 23 100 100 S 6 9 29.91 1013 10 16.09344 0 0
3:15 am 03:15 Clear 73 23 73 23 100 100 SSW 5 7 29.88 1012 10 16.09344 0 0
3:35 am 03:35 Clear 73 23 73 23 100 100 SSW 5 7 29.88 1012 10 16.09344 0 0
3:55 am 03:55 Clear 73 23 73 23 100 100 SSW 3 6 29.88 1012 10 16.09344 0 0
4:15 am 04:15 Partly Cloudy 73 23 73 23 100 100 SSW 3 6 29.88 1012 10 16.09344 0 0
4:35 am 04:35 Partly Cloudy with Light Rain 73 23 73 23 100 100 SW 5 7 29.88 1012 10 16.09344 0 0
4:55 am 04:55 Partly Cloudy with Rain 73 23 73 23 100 100 SW 3 6 29.88 1012 10 16.09344 0 0
5:15 am 05:15 Partly Cloudy 73 23 73 23 100 100 SSW 5 7 29.88 1012 10 16.09344 0 0
5:35 am 05:35 Partly Cloudy with Rain 73 23 73 23 100 100 SSW 8 13 29.88 1012 10 16.09344 0.01 0.254
5:55 am 05:55 Mostly Cloudy with Rain 73 23 72 22 94 94 SW 8 13 29.91 1013 7 11.265408 0.04 1.016
6:15 am 06:15 Cloudy with Light Rain 72 22 72 22 100 100 S 7 11 29.88 1012 3 4.828032 0.1 2.54
6:35 am 06:35 Cloudy 72 22 72 22 100 100 S 5 7 29.88 1012 10 16.09344 0.11 2.794
6:55 am 06:55 Cloudy 72 22 72 22 100 100 S 6 9 29.88 1012 10 16.09344 0.11 2.794
7:15 am 07:15 Cloudy 72 22 72 22 100 100 S 6 9 29.88 1012 10 16.09344 0 0
7:35 am 07:35 Mostly Cloudy 72 22 72 22 100 100 S 9 15 29.88 1012 10 16.09344 0 0
7:55 am 07:55 Mostly Cloudy 73 23 73 23 100 100 S 10 17 29.88 1012 10 16.09344 0 0
8:15 am 08:15 Cloudy 73 23 73 23 100 100 SSW 9 15 29.88 1012 10 16.09344 0 0
8:35 am 08:35 Cloudy 73 23 73 23 100 100 SSW 9 15 29.85 1011 10 16.09344 0 0
8:55 am 08:55 Cloudy 73 23 73 23 100 100 SSW 7 11 29.85 1011 10 16.09344 0 0
9:15 am 09:15 Mostly Cloudy 73 23 73 23 100 100 SSW 8 13 29.85 1011 10 16.09344 0 0
9:35 am 09:35 Mostly Cloudy 75 24 73 23 94 94 SSW 8 13 29.85 1011 10 16.09344 0 0
9:55 am 09:55 Mostly Cloudy 77 25 73 23 89 89 SSW 7 11 29.83 1010 10 16.09344 0 0
10:15 am 10:15 Partly Cloudy 79 26 75 24 89 89 SSW 12 19 29.83 1010 10 16.09344 0 0
10:35 am 10:35 Mostly Cloudy 81 27 75 24 84 84 SSW 9 15 29.83 1010 10 16.09344 0 0
10:55 am 10:55 Partly Cloudy N/A N/A N/A SSW 12 19 N/A 10 16.09344 0 0
11:15 am 11:15 Mostly Cloudy N/A N/A N/A SSW 10 17 N/A 10 16.09344 0 0
11:35 am 11:35 Mostly Cloudy N/A N/A N/A SSW 9 15 N/A 10 16.09344 0 0
11:55 am 11:55 Mostly Cloudy N/A N/A N/A SSW 9 15 N/A 10 16.09344 0 0
12:15 pm 12:15 Cloudy N/A N/A N/A SSW 14 22 N/A 10 16.09344 0 0
12:35 pm 12:35 Cloudy N/A N/A N/A SSW 9 15 N/A 10 16.09344 0 0
12:55 pm 12:55 Mostly Cloudy N/A N/A N/A SW 12 19 N/A 10 16.09344 0 0
1:15 pm 13:15 Partly Cloudy 86 30 75 24 70 70 SSW 16 26 29.77 1008 10 16.09344 0 0
1:35 pm 13:35 Partly Cloudy 88 31 77 25 70 70 S 15 24 29.74 1007 10 16.09344 0 0
1:55 pm 13:55 Partly Cloudy 88 31 77 25 70 70 SW 13 20 29.74 1007 10 16.09344 0 0
2:15 pm 14:15 Mostly Cloudy 88 31 77 25 70 70 SSW 10 17 29.74 1007 10 16.09344 0 0
2:35 pm 14:35 Partly Cloudy 88 31 77 25 70 70 SSW 16 26 29.74 1007 10 16.09344 0 0
2:55 pm 14:55 Sunny 90 32 77 25 67 67 SW 14 22 29.74 1007 10 16.09344 0 0
3:15 pm 15:15 Sunny N/A N/A N/A SW 14 22 N/A 10 16.09344 0 0
3:35 pm 15:35 Sunny N/A N/A N/A SSW 16 26 N/A 10 16.09344 0 0
3:55 pm 15:55 Mostly Cloudy with Light Rain N/A N/A N/A SSW 15 24 N/A 10 16.09344 0 0
4:15 pm 16:15 Cloudy with Light Rain 82 28 77 25 84 84 SSW 9 15 29.71 1006 10 16.09344 0 0
4:35 pm 16:35 Mostly Cloudy N/A N/A N/A SSW 13 20 N/A 10 16.09344 0 0
4:55 pm 16:55 Sunny 82 28 75 24 79 79 SSW 10 17 29.68 1005 10 16.09344 0 0
5:15 pm 17:15 Sunny N/A N/A N/A SSW 10 17 N/A 10 16.09344 0 0
5:35 pm 17:35 Sunny 86 30 75 24 70 70 SW 15 24 29.68 1005 10 16.09344 0 0
5:55 pm 17:55 Sunny N/A N/A N/A SSW 14 22 N/A 10 16.09344 0 0
6:15 pm 18:15 Sunny N/A N/A N/A SSW 9 15 N/A 10 16.09344 0 0
6:35 pm 18:35 Sunny N/A N/A N/A SW 14 22 N/A 10 16.09344 0 0
6:55 pm 18:55 Sunny N/A N/A N/A SSW 10 17 N/A 10 16.09344 0 0
7:15 pm 19:15 Sunny N/A N/A N/A SSW 9 15 N/A 10 16.09344 0 0
7:35 pm 19:35 Sunny N/A N/A N/A SSW 7 11 N/A 10 16.09344 0 0
7:55 pm 19:55 Sunny N/A N/A N/A SSW 10 17 N/A 10 16.09344 0 0
8:15 pm 20:15 Sunny N/A N/A N/A SSW 12 19 N/A 10 16.09344 0 0
8:35 pm 20:35 Sunny N/A N/A N/A SSW 9 15 N/A 10 16.09344 0 0
8:55 pm 20:55 Clear 82 28 75 24 79 79 SSW 6 9 29.68 1005 10 16.09344 0 0
9:15 pm 21:15 Mostly Cloudy N/A N/A N/A SSW 8 13 N/A 10 16.09344 0 0
9:35 pm 21:35 Cloudy N/A N/A N/A SSW 6 9 N/A 10 16.09344 0 0
9:55 pm 21:55 Mostly Cloudy N/A N/A N/A SSW 9 15 N/A 10 16.09344 0 0
10:15 pm 22:15 Mostly Cloudy N/A N/A N/A S 8 13 N/A 10 16.09344 0 0
10:35 pm 22:35 Partly Cloudy N/A N/A N/A SSW 8 13 N/A 10 16.09344 0 0
10:55 pm 22:55 Partly Cloudy 81 27 73 23 79 79 S 6 9 29.71 1006 10 16.09344 0 0
11:15 pm 23:15 Clear N/A N/A N/A S 8 13 N/A 10 16.09344 0 0
11:35 pm 23:35 Clear 81 27 75 24 84 84 SSW 8 13 29.71 1006 10 16.09344 0 0
11:55 pm 23:55 Clear N/A N/A N/A SSW 9 15 N/A 10 16.09344 0 0

Powered by AerisWeather